Regional Weather Roundup
Issued by NWS

Home | Current Version | Previous Version | Text Only | Print | Product List | Glossary On
Versions: 1 2 3 4 5 6 7 8 9 10 11 12 13 14 15 16 17 18 19 20 21 22 23 24 25 26 27
000
ASUS45 KREV 270610
RWRNV
NEVADA REGIONAL WEATHER ROUNDUP
NATIONAL WEATHER SERVICE RENO NV
1100 PM PDT FRI AUG 26 2016

NOTE: "FAIR" INDICATES FEW OR NO CLOUDS BELOW 12,000 FEET WITH NO
SIGNIFICANT WEATHER AND/OR OBSTRUCTIONS TO VISIBILITY.

NVZ001-003-004-270700-
WESTERN NEVADA

CITY           SKY/WX    TMP DP  RH WIND       PRES   REMARKS
RENO           CLEAR     73  32  22 NW7       30.06R
6HR MIN TEMP:  73; 6HR MAX TEMP:  90;

CARSON CITY    FAIR      63  32  31 CALM      30.08S
MINDEN         FAIR      59  36  41 SE9       30.09S
PYRAMID LAKE     N/A     77 N/A N/A SW3         N/A
FALLON         CLEAR     70  33  25 S3        29.98R
6HR MIN TEMP:  66; 6HR MAX TEMP:  92;

LOVELOCK       CLEAR     60  18  19 S8        29.96S
6HR MIN TEMP:  60; 6HR MAX TEMP:  91;

$$

NVZ002-CAZ072-073-270700-
NORTHERN AND CENTRAL SIERRA

CITY           SKY/WX    TMP DP  RH WIND       PRES   REMARKS
S. LAKE TAHOE  CLEAR     51  35  54 CALM      30.19F
6HR MIN TEMP:  51; 6HR MAX TEMP:  76;

TRUCKEE        CLEAR     46  32  57 CALM      30.19S
SQUAW VLY 8000 NOT AVBL
MAMMOTH LAKES  FAIR      54  32  44 CALM      30.23S
6HR MIN TEMP:  54; 6HR MAX TEMP:  77;

BRIDGEPORT       N/A     55  27  34 CALM      30.19F
$$

NVZ030-031-036-270700-
NORTHERN NEVADA

CITY           SKY/WX    TMP DP  RH WIND       PRES   REMARKS
ELKO           CLEAR     52  25  35 CALM      30.05S
6HR MIN TEMP:  52; 6HR MAX TEMP:  82;

WINNEMUCCA     CLEAR     56  23  27 S6        30.00R
6HR MIN TEMP:  52; 6HR MAX TEMP:  87;

WENDOVER       CLEAR     73  28  19 N15       30.02S
$$

NVZ035-037-270700-
CENTRAL NEVADA

CITY           SKY/WX    TMP DP  RH WIND       PRES   REMARKS
ELY            MOCLDY    61  30  31 S8        30.15R
6HR MIN TEMP:  60; 6HR MAX TEMP:  81;

EUREKA           N/A     52  22  30 S6        30.12S
6HR MIN TEMP:  52; 6HR MAX TEMP:  83;

$$

NVZ013-014-270700-
SOUTH CENTRAL NEVADA

CITY           SKY/WX    TMP DP  RH WIND       PRES   REMARKS
TONOPAH        MOCLDY    77  25  14 N14G28    30.10R
6HR MIN TEMP:  70; 6HR MAX TEMP:  87;

$$

NVZ017-020-022-270700-
SOUTHERN NEVADA

CITY           SKY/WX    TMP DP  RH WIND       PRES   REMARKS
LAS VEGAS      CLOUDY    85  47  26 S9G17     29.88R
6HR MIN TEMP:  84; 6HR MAX TEMP:  96;

N. LAS VEGAS   MOCLDY    83  52  34 SE3       29.89F
6HR MIN TEMP:  83; 6HR MAX TEMP:  93;

NELLIS AFB     MOCLDY    85  53  33 NW2       29.88S
6HR MIN TEMP:  85; 6HR MAX TEMP:  93;

HENDERSON      CLOUDY    80  54  40 S13       29.93S
6HR MIN TEMP:  80; 6HR MAX TEMP:  95; 6HR PCP: TRACE;

MERCURY        CLEAR     79  41  25 SE5       29.94R
6HR MIN TEMP:  79; 6HR MAX TEMP:  92;

$$




USA.gov is the U.S. government's official web portal to all federal, state and local government web resources and services.